Location: Artiguedieu
(43.5000°N, 0.5454°E)
Time: 13:40:42
(UTC+00:00)

SR - Visible Passes

Search period start: 04 August 2021 00:00
Search period end: 14 August 2021 00:00
Orbit: 577 x 877 km, 66.7° (Epoch: 03 August)

Date Brightness Start Highest point End Pass type
(mag) Time Alt. Az. Time Alt. Az. Time Alt. Az.
05 Aug ? 03:51:29 10° SSE 03:56:00 24° ESE 04:00:22 10° ENE visible
06 Aug ? 03:04:34 10° ESE 03:06:35 12° ESE 03:08:34 10° E visible
07 Aug ? 03:52:45 10° S 03:58:11 42° ESE 04:03:20 10° NE visible
08 Aug ? 03:04:16 10° SSE 03:08:36 22° ESE 03:12:49 10° ENE visible
09 Aug ? 02:17:51 10° ESE 02:19:13 11° ESE 02:20:33 10° E visible
09 Aug ? 03:54:41 10° SSW 04:00:28 73° ESE 04:05:56 10° NE visible
10 Aug ? 03:06:15 14° S 03:10:47 39° ESE 03:15:51 10° NE visible
11 Aug ? 02:18:13 14° SE 02:21:13 21° ESE 02:25:14 10° ENE visible
11 Aug ? 03:57:39 12° SW 04:02:53 66° WNW 04:08:17 10° NNE visible
12 Aug ? 03:09:33 24° SSW 03:13:03 69° ESE 03:18:28 10° NE visible
13 Aug ? 02:21:24 28° SSE 02:23:22 36° ESE 02:28:20 10° NE visible
13 Aug ? 04:00:49 13° WSW 04:05:25 39° NW 04:10:27 10° NNE visible
